Regional Weather Roundup
Issued by NWS

Home | Current Version | Previous Version | Text Only | Print | Product List | Glossary On
Versions: 1 2 3 4 5 6 7 8 9 10 11 12 13 14 15 16 17 18 19 20 21 22 23 24 25 26 27 28
000
ASUS46 KPQR 251610
RWROR

OREGON REGIONAL WEATHER ROUNDUP
NATIONAL WEATHER SERVICE PORTLAND OR
900 AM PDT SUN JUN 25 2017

NOTE: "FAIR" INDICATES FEW OR NO CLOUDS BELOW 12,000 FEET WITH
NO SIGNIFICANT WEATHER AND/OR OBSTRUCTIONS TO VISIBILITY.

ORZ001>013-251700-
NORTHWEST OREGON


CITY           SKY/WX    TMP DP  RH WIND       PRES   REMARKS
ASTORIA        SUNNY     59  53  80 SW14      29.90R
NEWPORT        SUNNY     57  54  88 SW12G17   29.96S
PORTLAND       MOSUNNY   77  54  44 W3        29.87S
VANCOUVER WA   SUNNY     78  58  49 W5        29.87S
SCAPPOOSE      SUNNY     77  62  59 MISG      29.86F
HILLSBORO      SUNNY     79  57  46 CALM      29.87S
AURORA         SUNNY     78  54  43 VRB3      29.87S
MCMINNVILLE    SUNNY     83  49  30 N7        29.87S
SALEM          SUNNY     81  44  27 CALM      29.86S
CORVALLIS      SUNNY     75  55  50 CALM      29.89R
EUGENE         MOSUNNY   72  58  61 SW3       29.89F
$$

ORZ021-028-251700-
SOUTHWEST OREGON


CITY           SKY/WX    TMP DP  RH WIND       PRES   REMARKS
NORTH BEND     CLOUDY    55  54  94 W3        29.96R
BROOKINGS      CLOUDY    56  54  93 S7        29.98R
ROSEBURG       SUNNY     74  60  61 CALM      29.89S
SEXTON SUMMIT  SUNNY     82  39  21 E8        30.05S
GRANTS PASS    FAIR      75  55  50 CALM      29.95S
MEDFORD        SUNNY     76  52  43 CALM      29.91F
$$

ORZ014>016-041-251700-
COLUMBIA GORGE


CITY           SKY/WX    TMP DP  RH WIND       PRES   REMARKS
TROUTDALE      SUNNY     82  45  27 E20G28    29.85S
HOOD RIVER     SUNNY     70  52  52 CALM      30.00F
THE DALLES     SUNNY     72  47  40 CALM      29.99F
$$

ORZ029>031-041-044-049-050-061>064-502-503-505>511-251700-
EASTERN OREGON


CITY           SKY/WX    TMP DP  RH WIND       PRES   REMARKS
MADRAS         SUNNY     70  37  30 CALM      30.10F
REDMOND        SUNNY     74  31  20 S5        30.10F
BEND           SUNNY    N/A N/A N/A CALM      30.13S
PRINEVILLE     SUNNY     73  39  29 E5        30.12F
KLAMATH FALLS  SUNNY     75  44  33 N6        30.12F
LAKEVIEW       SUNNY     74  47  38 E3        30.18F
HERMISTON      SUNNY     71  49  45 N6        30.01S
PENDLETON      SUNNY     76  46  34 S3        30.03S
JOHN DAY       SUNNY     72  43  35 CALM      30.16S
MEACHAM        SUNNY     74  38  27 CALM      30.15S
LA GRANDE      SUNNY     64  27  24 N3        30.14F
BAKER CITY     SUNNY     68  41  37 CALM      30.17F
BURNS          SUNNY     75  39  27 E6        30.19S
ROME             N/A     76  31  19 VRB3      30.18S
ONTARIO        SUNNY     73  48  41 CALM      30.13S
$$




USA.gov is the U.S. government's official web portal to all federal, state and local government web resources and services.